Home   Weather   42°02'N, 84°45'W   Past weeks
Flag for USA

Past Weather in 42°02'N, 84°45'W, USA — Yesterday and Last 2 Weeks

Now
48 °F

Clear.


Feels Like: 43 °F
Forecast: 56 / 45 °F
Wind: 10 mph from South

Location: Capital City Airport

Current Time: Oct 22, 2019 at 7:44:34 am

Latest Report: Oct 22, 2019 at 6:53 am


Visibility: 10 mi

Pressure: 29.57 "Hg

Humidity: 74%

Dew Point: 40 °F

Location of 42°02'N, 84°45'WLocation

Past Weather in 42°02'N, 84°45'W — Graph

°F

42°02'N, 84°45'W Temperature Yesterday

Maximum temperature yesterday: 62 °F (at 9:53 pm)
Minimum temperature yesterday: 50 °F (at 12:53 am)
Average temperature yesterday: 57 °F

High & Low Weather Summary for the Past Weeks

 TemperatureHumidityPressure
High71 °F (Oct 10, 2:53 pm)94% (Oct 11, 5:53 pm)30.31 "Hg (Oct 11, 5:53 pm)
Low32 °F (Oct 15, 4:53 am)35% (Oct 7, 3:53 pm)29.57 "Hg (Oct 21, 8:53 pm)
Average51 °F72%29.96 "Hg
* Reported Oct 7 5:53 am — Oct 22 5:53 am, 42°02'N, 84°45'W. Weather by CustomWeather, © 2019

Note: Actual official high and low records may vary slightly from our data, if they occured in-between our weather recording intervals... More about our weather records

Advertising

42°02'N, 84°45'W Weather History for the Previous 24 Hours

Scroll right to see more
 ConditionsComfort  
Time TempWeatherWind HumidityBarometerVisibility
5:53 am
Tue, Oct 22
47 °FClear.9 mph77%29.58 "Hg10 mi
4:53 am47 °FClear.10 mph77%29.59 "Hg10 mi
3:53 am49 °FClear.8 mph71%29.61 "Hg10 mi
2:53 am51 °FPassing clouds.12 mph71%29.63 "Hg10 mi
1:53 am53 °FOvercast.13 mph66%29.62 "Hg10 mi
12:53 am54 °FPassing clouds.9 mph80%29.61 "Hg10 mi
12:08 am55 °FLight rain. Partly cloudy.15 mph80%29.61 "Hg9 mi
9:53 pm
Mon, Oct 21
62 °FOvercast.12 mph80%29.57 "Hg10 mi
8:53 pm61 °FOvercast.16 mph90%29.57 "Hg10 mi
7:53 pm60 °FLight rain. Overcast.13 mph90%29.57 "Hg10 mi
7:25 pm60 °FLight rain. Mostly cloudy.10 mph90%29.58 "Hg8 mi
6:53 pm60 °FLight rain. Fog.12 mph86%29.59 "Hg6 mi
5:53 pm59 °FLight rain. Fog.17 mph87%29.61 "Hg4 mi
4:53 pm59 °FOvercast.18 mph87%29.61 "Hg10 mi
4:18 pm59 °FBroken clouds.23 mph90%29.59 "Hg10 mi
3:53 pm59 °FLight rain. Fog.25 mph87%29.58 "Hg5 mi
2:53 pm59 °FRain. Fog.20 mph87%29.65 "Hg4 mi
1:53 pm60 °FLight rain. Overcast.17 mph80%29.69 "Hg7 mi
12:53 pm60 °FLight rain. Mostly cloudy.20 mph80%29.75 "Hg8 mi
11:53 am59 °FPartly sunny.16 mph78%29.79 "Hg10 mi
10:53 am58 °FPartly sunny.15 mph75%29.80 "Hg10 mi
9:53 am57 °FOvercast.12 mph72%29.84 "Hg10 mi
8:53 am55 °FOvercast.10 mph72%29.85 "Hg10 mi
7:53 am53 °FOvercast.12 mph72%29.88 "Hg10 mi
Weather by CustomWeather, © 2019

See weather overview